1503028800.27,22954,19.63,74646.0,7.13,-7.31,-8.03,0,*7E
1503028801.53,22955,19.63,74640.3,7.11,-7.35,-8.03,0,*79
1503028802.79,22956,19.63,74646.8,7.11,-7.35,-8.03,0,*7A
1503028804.06,22957,19.63,74644.0,7.11,-7.35,-8.07,0,*7F
1503028805.31,22958,19.63,74640.8,7.11,-7.39,-8.03,0,*78
1503028806.54,22959,19.63,74642.3,7.13,-7.31,-8.11,0,*70
1503028807.8,22960,19.63,74644.3,7.11,-7.39,-8.07,0,*77
1503028809.04,22961,19.63,74644.3,7.13,-7.35,-8.11,0,*7F
1503028810.28,22962,19.63,74644.5,7.13,-7.35,-8.03,0,*7F
1503028811.51,22963,19.63,74640.3,7.11,-7.35,-8.17,0,*79
1503028812.75,22964,19.63,74646.5,7.13,-7.35,-8.11,0,*7A
1503028814.02,22965,19.63,74644.0,7.11,-7.35,-8.07,0,*7E
1503028815.2,22966,19.63,74642.5,7.13,-7.49,-8.17,0,*75
1503028816.41,22967,19.63,74646.5,7.13,-7.43,-8.17,0,*7E
1503028817.62,22968,19.63,74644.3,7.13,-7.43,-8.17,0,*71
1503028818.83,22969,19.63,74642.0,7.13,-7.35,-8.17,0,*71
1503028820.07,22970,19.63,74640.8,7.11,-7.35,-8.17,0,*7B
1503028821.3,22971,19.63,74640.3,7.13,-7.35,-8.03,0,*7D
1503028822.54,22972,19.63,74642.5,7.13,-7.35,-8.11,0,*7D
1503028823.77,22973,19.63,74646.3,7.11,-7.39,-8.17,0,*74
1503028824.97,22974,19.63,74644.3,7.13,-7.49,-8.11,0,*70
1503028826.19,22975,19.63,74644.0,7.13,-7.43,-8.17,0,*7D
1503028827.42,22976,19.63,74644.0,7.13,-7.43,-8.11,0,*78
1503028828.61,22977,19.63,74640.3,7.13,-7.49,-8.17,0,*75
1503028829.79,22978,19.63,74644.3,7.13,-7.49,-8.25,0,*7B
1503028831.0,22979,19.63,74640.5,7.13,-7.43,-8.17,0,*71
1503028832.21,22980,19.63,74640.0,7.11,-7.49,-8.29,0,*72
1503028833.44,22981,19.63,74646.5,7.11,-7.61,-8.29,0,*79
1503028834.62,22982,19.63,74644.3,7.13,-7.49,-8.25,0,*7E
1503028835.83,22983,19.63,74644.8,7.13,-7.43,-8.25,0,*75
1503028837.05,22984,19.63,74642.5,7.13,-7.57,-8.25,0,*77
1503028838.28,22985,19.63,74644.3,7.11,-7.65,-8.29,0,*79
1503028839.5,22986,19.63,74644.0,7.13,-7.57,-8.29,0,*79
1503028840.73,22987,19.63,74642.0,7.11,-7.61,-8.29,0,*7F
1503028841.95,22988,19.63,74644.3,7.13,-7.69,-8.37,0,*75
1503028843.16,22989,19.63,74644.8,7.13,-7.69,-8.37,0,*74
1503028844.4,22990,19.63,74644.3,7.11,-7.73,-8.29,0,*7A
1503028845.62,22991,19.63,74644.5,7.13,-7.69,-8.37,0,*7D
1503028846.83,22992,19.63,74648.8,7.13,-7.69,-8.37,0,*7E
1503028848.05,22993,19.63,74644.8,7.13,-7.61,-8.37,0,*77
1503028849.27,22994,19.63,74646.3,7.13,-7.73,-8.41,0,*72
1503028850.48,22995,19.63,74644.3,7.13,-7.69,-8.41,0,*78
1503028851.71,22996,19.63,74644.5,7.11,-7.65,-8.41,0,*75
1503028852.92,22997,19.63,74648.3,7.13,-7.61,-8.29,0,*7C
1503028854.14,22998,19.63,74644.3,7.13,-7.61,-8.25,0,*7F
1503028855.35,22999,19.63,74644.5,7.13,-7.43,-8.17,0,*7F
1503028856.56,23000,19.63,74644.8,7.13,-7.43,-8.17,0,*77
1503028857.77,23001,19.63,74644.8,7.11,-7.49,-8.21,0,*7B
1503028858.98,23002,19.63,74644.8,7.11,-7.49,-8.21,0,*78
1503028860.21,23003,19.63,74646.3,7.13,-7.35,-8.03,0,*70
1503028861.45,23004,19.63,74644.8,7.13,-7.35,-8.11,0,*74
1503028862.69,23005,19.63,74646.3,7.13,-7.35,-8.11,0,*75
1503028863.92,23006,19.63,74644.5,7.13,-7.35,-8.11,0,*76
1503028865.15,23007,19.63,74642.3,7.13,-7.31,-8.03,0,*70
1503028866.39,23008,19.63,74642.0,7.13,-7.35,-8.03,0,*7B
1503028867.62,23009,19.63,74640.5,7.13,-7.35,-8.03,0,*7A
1503028868.83,23010,19.63,74642.5,7.15,-7.49,-8.17,0,*7A
1503028870.08,23011,19.63,74642.0,7.15,-7.57,-8.25,0,*75
1503028871.32,23012,19.63,74640.0,7.15,-7.43,-8.17,0,*72
1503028872.5,23013,19.63,74642.0,7.13,-7.49,-8.17,0,*7F
1503028873.68,23014,19.63,74642.5,7.13,-7.49,-8.25,0,*79
1503028874.9,23015,19.63,74644.0,7.13,-7.57,-8.17,0,*76
1503028876.11,23016,19.63,74640.3,7.15,-7.49,-8.17,0,*7C
1503028877.32,23017,19.63,74646.0,7.15,-7.49,-8.17,0,*7D
1503028878.56,23018,19.63,74642.3,7.15,-7.43,-8.17,0,*78
1503028879.83,23019,19.63,74644.8,7.15,-7.43,-8.11,0,*7F
1503028881.04,23020,19.63,74640.5,7.15,-7.49,-8.25,0,*78
1503028882.31,23021,19.63,74644.3,7.15,-7.35,-8.03,0,*76
1503028883.57,23022,19.63,74646.8,7.15,-7.31,-7.99,0,*7D
1503028884.84,23023,19.63,74642.5,7.15,-7.35,-7.99,0,*78
1503028886.1,23024,19.63,74642.8,7.15,-7.35,-7.99,0,*7F
1503028887.37,23025,19.63,74642.8,7.15,-7.35,-8.03,0,*72
1503028888.63,23026,19.63,74644.5,7.15,-7.31,-8.11,0,*76
1503028889.89,23027,19.63,74646.0,7.15,-7.35,-8.03,0,*70
1503028891.1,23028,19.63,74646.0,7.15,-7.49,-8.25,0,*70
1503028892.35,23029,19.69,74646.5,7.15,-7.57,-8.21,0,*7A
1503028893.56,23030,19.63,74640.8,7.15,-7.49,-8.17,0,*78
1503028894.77,23031,19.63,74646.0,7.15,-7.49,-8.17,0,*79
1503028896.0,23032,19.63,74646.0,7.17,-7.57,-8.21,0,*72
1503028897.24,23033,19.69,74650.3,7.15,-7.43,-8.17,0,*71
1503028898.45,23034,19.63,74646.8,7.15,-7.49,-8.17,0,*7C
1503028899.69,23035,19.63,74644.5,7.15,-7.57,-8.17,0,*72
1503028900.9,23036,19.63,74644.0,7.15,-7.49,-8.17,0,*7E
1503028902.11,23037,19.63,74648.0,7.15,-7.49,-8.25,0,*7E
1503028903.3,23038,19.63,74646.3,7.13,-7.49,-8.25,0,*77
1503028904.53,23039,19.63,74646.0,7.13,-7.43,-8.03,0,*78
1503028905.74,23040,19.63,74646.8,7.15,-7.49,-8.17,0,*7F
1503028907.01,23041,19.63,74646.8,7.15,-7.43,-8.11,0,*72
1503028908.28,23042,19.63,74640.3,7.15,-7.31,-7.99,0,*7B
1503028909.54,23043,19.63,74640.0,7.15,-7.35,-8.11,0,*71
1503028910.78,23044,19.63,74646.8,7.15,-7.43,-8.25,0,*70
1503028912.0,23045,19.69,74648.8,7.17,-7.43,-8.21,0,*77
1503028913.21,23046,19.69,74646.5,7.17,-7.43,-8.21,0,*74
1503028914.43,23047,19.63,74646.3,7.17,-7.43,-8.21,0,*75
1503028915.64,23048,19.63,74646.8,7.15,-7.49,-8.17,0,*77
1503028916.88,23049,19.69,74646.8,7.17,-7.39,-8.07,0,*72
1503028918.09,23050,19.69,74646.5,7.15,-7.49,-8.17,0,*7E
1503028919.33,23051,19.69,74646.5,7.15,-7.61,-8.25,0,*74
1503028920.55,23052,19.69,74646.5,7.17,-7.43,-8.21,0,*71
1503028921.79,23053,19.69,74650.0,7.15,-7.61,-8.25,0,*76
1503028923.03,23054,19.63,74644.3,7.15,-7.61,-8.25,0,*71
1503028924.27,23055,19.63,74644.3,7.15,-7.43,-8.17,0,*71
1503028925.48,23056,19.63,74646.8,7.15,-7.49,-8.17,0,*78
1503028926.66,23057,19.69,74648.3,7.13,-7.49,-8.25,0,*7E
1503028927.91,23058,19.69,74650.0,7.15,-7.57,-8.25,0,*78
1503028929.15,23059,19.69,74646.0,7.15,-7.57,-8.25,0,*79
1503028930.39,23060,19.69,74650.0,7.15,-7.61,-8.25,0,*76
1503028931.64,23061,19.69,74650.5,7.15,-7.61,-8.29,0,*7B
1503028932.87,23062,19.69,74648.0,7.15,-7.69,-8.29,0,*70
1503028934.11,23063,19.69,74648.3,7.15,-7.69,-8.29,0,*71
1503028935.35,23064,19.69,74646.3,7.15,-7.69,-8.29,0,*76
1503028936.59,23065,19.63,74646.8,7.15,-7.61,-8.29,0,*7F
1503028937.83,23066,19.69,74654.0,7.15,-7.57,-8.29,0,*79
1503028939.05,23067,19.69,74650.0,7.17,-7.57,-8.25,0,*76
1503028940.29,23068,19.69,74648.5,7.15,-7.57,-8.25,0,*7B
1503028941.56,23069,19.69,74650.0,7.15,-7.31,-7.91,0,*7A
1503028942.8,23070,19.69,74648.5,7.15,-7.31,-7.87,0,*75
1503028944.07,23071,19.69,74648.0,7.15,-7.31,-7.91,0,*73
1503028945.28,23072,19.69,74644.8,7.17,-7.15,-7.77,0,*7C
1503028946.55,23073,19.69,74646.3,7.15,-7.35,-7.99,0,*7D
1503028947.82,23074,19.69,74648.3,7.15,-7.43,-8.11,0,*74
1503028949.05,23075,19.69,74646.3,7.17,-7.27,-7.95,0,*76
1503028950.29,23076,19.69,74644.3,7.17,-7.27,-7.99,0,*79
1503028951.55,23077,19.69,74642.5,7.15,-7.31,-7.99,0,*7D
1503028952.82,23078,19.69,74646.0,7.15,-7.35,-7.99,0,*76
1503028954.06,23079,19.69,74646.3,7.17,-7.39,-8.07,0,*71
1503028955.29,23080,19.69,74644.0,7.17,-7.31,-7.99,0,*77
1503028956.55,23081,19.69,74644.3,7.15,-7.31,-7.99,0,*74
1503028957.79,23082,19.69,74644.0,7.17,-7.43,-8.11,0,*7F
1503028959.03,23083,19.69,74644.5,7.17,-7.39,-8.07,0,*74
1503028960.28,23084,19.69,74646.0,7.17,-7.43,-8.07,0,*7E
1503028961.52,23085,19.69,74646.3,7.17,-7.39,-8.07,0,*72
1503028962.73,23086,19.69,74646.0,7.15,-7.49,-8.25,0,*74
1503028963.94,23087,19.69,74644.8,7.15,-7.49,-8.17,0,*74
1503028965.18,23088,19.69,74644.3,7.17,-7.43,-8.11,0,*75
1503028966.39,23089,19.69,74646.8,7.17,-7.61,-8.25,0,*73
1503028967.58,23090,19.69,74646.3,7.17,-7.53,-8.21,0,*7E
1503028968.8,23091,19.69,74644.8,7.17,-7.53,-8.11,0,*7C
1503028970.01,23092,19.69,74644.0,7.15,-7.49,-8.25,0,*71
1503028971.25,23093,19.69,74648.0,7.15,-7.43,-8.17,0,*7B
1503028972.49,23094,19.69,74650.8,7.17,-7.43,-8.11,0,*78
1503028973.72,23095,19.69,74648.8,7.17,-7.39,-8.11,0,*74
1503028974.99,23096,19.69,74650.8,7.15,-7.35,-8.11,0,*79
1503028976.25,23097,19.69,74648.3,7.15,-7.31,-7.91,0,*7B
1503028977.52,23098,19.69,74644.3,7.15,-7.35,-8.11,0,*77
1503028978.73,23099,19.69,74642.0,7.15,-7.49,-8.25,0,*7A
1503028979.94,23100,19.69,74640.8,7.17,-7.53,-8.11,0,*75
1503028981.13,23101,19.69,74640.0,7.17,-7.49,-8.17,0,*79
1503028982.37,23102,19.69,74640.5,7.15,-7.35,-8.17,0,*73
1503028983.61,23103,19.69,74644.3,7.15,-7.43,-8.17,0,*73
1503028984.88,23104,19.69,74646.3,7.15,-7.43,-7.99,0,*7D
1503028986.14,23105,19.69,74642.3,7.15,-7.35,-8.03,0,*71
1503028987.37,23106,19.69,74644.0,7.17,-7.39,-8.11,0,*7F
1503028988.64,23107,19.69,74644.8,7.15,-7.35,-8.03,0,*73
1503028989.88,23108,19.69,74642.3,7.15,-7.27,-7.87,0,*7C
1503028991.14,23109,19.69,74638.8,7.15,-7.31,-7.99,0,*75
1503028992.38,23110,19.69,74640.0,7.17,-7.27,-7.95,0,*74
1503028993.64,23111,19.69,74640.3,7.15,-7.31,-7.99,0,*7C
1503028994.91,23112,19.69,74644.5,7.15,-7.35,-7.99,0,*7B
1503028996.12,23113,19.69,74646.3,7.17,-7.27,-7.87,0,*74
1503028997.32,23114,19.69,74642.3,7.17,-7.19,-7.87,0,*7E
1503028998.53,23115,19.69,74640.5,7.17,-7.19,-7.95,0,*7C
1503028999.73,23116,19.69,74640.5,7.17,-7.19,-7.87,0,*7C
1503029000.94,23117,19.69,74642.5,7.17,-7.19,-7.95,0,*7E
1503029002.16,23118,19.69,74640.8,7.17,-7.19,-7.99,0,*7D
1503029003.36,23119,19.69,74640.3,7.17,-7.19,-7.87,0,*73
1503029004.55,23120,19.69,74640.5,7.17,-7.19,-7.83,0,*7D
1503029005.75,23121,19.69,74636.3,7.17,-7.19,-7.87,0,*78
1503029006.94,23122,19.69,74640.3,7.17,-7.15,-7.87,0,*77
1503029008.16,23123,19.69,74640.3,7.21,-7.19,-7.95,0,*7C
1503029009.4,23124,19.69,74644.3,7.19,-7.19,-7.95,0,*70
1503029010.66,23125,19.69,74640.8,7.19,-7.27,-7.99,0,*70
1503029011.91,23126,19.69,74642.5,7.19,-7.27,-7.95,0,*7F
1503029013.13,23127,19.69,74642.3,7.19,-7.15,-7.87,0,*7C
1503029014.35,23128,19.69,74642.5,7.19,-7.15,-7.87,0,*73
1503029015.57,23129,19.69,74640.8,7.21,-7.15,-7.91,0,*7E
1503029016.8,23130,19.75,74640.5,7.19,-7.19,-7.95,0,*75
1503029018.02,23131,19.69,74638.3,7.21,-7.15,-8.03,0,*73
1503029019.28,23132,19.75,74640.3,7.19,-7.27,-7.99,0,*76
1503029020.53,23133,19.69,74640.3,7.19,-7.27,-7.95,0,*7B
1503029021.77,23134,19.69,74636.8,7.19,-7.15,-7.95,0,*7D
1503029023.01,23135,19.69,74636.8,7.19,-7.19,-7.99,0,*7C
1503029024.23,23136,19.69,74638.5,7.21,-7.15,-7.91,0,*70
1503029025.45,23137,19.69,74640.5,7.21,-7.11,-7.91,0,*75
1503029026.71,23138,19.75,74642.3,7.19,-7.05,-7.77,0,*7C
1503029027.97,23139,19.75,74642.5,7.19,-7.31,-7.99,0,*7A
1503029029.17,23140,19.69,74636.8,7.21,-7.11,-7.83,0,*76
1503029030.42,23141,19.69,74638.3,7.21,-6.97,-7.65,0,*70
1503029031.64,23142,19.69,74636.3,7.21,-7.15,-7.91,0,*73
1503029032.86,23143,19.75,74640.8,7.21,-7.11,-7.77,0,*7E
1503029034.1,23144,19.75,74640.0,7.19,-7.19,-7.95,0,*76
1503029035.31,23145,19.69,74636.8,7.21,-7.15,-7.91,0,*74
1503029036.54,23146,19.69,74640.0,7.21,-7.11,-7.91,0,*73
1503029037.78,23147,19.69,74636.5,7.19,-7.19,-7.99,0,*79
1503029039.0,23148,19.75,74642.0,7.21,-7.11,-7.91,0,*7D
1503029040.22,23149,19.69,74636.5,7.21,-7.15,-7.91,0,*78
1503029041.44,23150,19.69,74638.3,7.21,-7.15,-7.91,0,*70
1503029042.65,23151,19.75,74640.3,7.21,-7.15,-7.91,0,*71
1503029043.89,23152,19.75,74638.5,7.25,-7.05,-7.91,0,*77
1503029045.11,23153,19.75,74638.0,7.21,-7.11,-7.95,0,*73
1503029046.33,23154,19.75,74636.5,7.21,-6.97,-7.83,0,*7C
1503029047.55,23155,19.75,74636.3,7.25,-7.01,-7.87,0,*73
1503029048.79,23156,19.75,74638.5,7.25,-6.97,-7.77,0,*71
1503029049.99,23157,19.75,74638.5,7.25,-7.11,-7.87,0,*70
1503029051.23,23158,19.75,74640.5,7.25,-7.05,-7.91,0,*7D
1503029052.46,23159,19.75,74640.0,7.25,-7.05,-7.91,0,*7C
1503029053.7,23160,19.75,74644.5,7.25,-6.97,-7.77,0,*74
1503029054.97,23161,19.75,74640.5,7.27,-7.05,-7.91,0,*75
1503029056.19,23162,19.75,74638.5,7.25,-7.11,-7.91,0,*71
1503029057.42,23163,19.75,74638.8,7.25,-7.05,-7.91,0,*75
1503029058.69,23164,19.75,74642.0,7.27,-6.97,-7.99,0,*72
1503029059.91,23165,19.75,74640.5,7.25,-7.11,-7.99,0,*7E
1503029061.12,23166,19.75,74640.3,7.25,-7.11,-7.99,0,*7D
1503029062.34,23167,19.75,74638.8,7.25,-7.19,-8.03,0,*78
1503029063.58,23168,19.75,74638.3,7.25,-7.05,-7.91,0,*7E
1503029064.81,23169,19.75,74640.5,7.25,-7.05,-7.91,0,*7F
1503029066.06,23170,19.75,74642.3,7.27,-7.11,-7.99,0,*78
1503029067.32,23171,19.75,74642.3,7.27,-7.05,-7.91,0,*74
1503029068.56,23172,19.75,74646.0,7.27,-7.11,-7.91,0,*72
1503029069.81,23173,19.75,74646.0,7.27,-7.11,-8.11,0,*74
1503029071.05,23174,19.75,74646.3,7.27,-7.11,-8.11,0,*73
1503029072.27,23175,19.75,74644.0,7.25,-7.11,-8.03,0,*73
1503029073.49,23176,19.75,74646.3,7.25,-7.11,-8.11,0,*73
1503029074.7,23177,19.75,74646.8,7.25,-7.11,-8.03,0,*71
1503029075.96,23178,19.75,74644.5,7.27,-7.05,-7.99,0,*75
1503029077.22,23179,19.75,74642.8,7.27,-7.05,-8.03,0,*78
1503029078.44,23180,19.75,74644.0,7.25,-7.11,-8.11,0,*7A
1503029079.68,23181,19.75,74642.8,7.25,-7.05,-7.91,0,*79
1503029080.92,23182,19.75,74644.5,7.27,-7.11,-8.03,0,*79
1503029082.18,23183,19.75,74644.5,7.27,-6.97,-7.99,0,*7B
1503029083.45,23184,19.75,74642.3,7.27,-6.97,-8.03,0,*70
1503029084.71,23185,19.75,74642.0,7.27,-7.05,-8.03,0,*7B
1503029085.95,23186,19.75,74642.5,7.27,-7.11,-8.11,0,*7E
1503029087.19,23187,19.75,74634.8,7.27,-7.11,-8.03,0,*7C
1503029088.43,23188,19.75,74638.8,7.27,-7.11,-8.03,0,*73
1503029089.67,23189,19.75,74640.3,7.25,-7.05,-8.11,0,*76
1503029090.91,23190,19.75,74642.8,7.25,-7.05,-8.11,0,*7E
1503029092.1,23191,19.75,74640.5,7.29,-6.89,-7.87,0,*76
1503029093.3,23192,19.75,74640.0,7.29,-6.77,-7.83,0,*70
1503029094.54,23193,19.75,74640.0,7.27,-6.77,-7.77,0,*74
1503029095.74,23194,19.75,74636.8,7.29,-6.77,-7.87,0,*72
1503029096.95,23195,19.75,74632.0,7.29,-6.73,-7.69,0,*77
1503029098.19,23196,19.75,74638.8,7.29,-6.63,-7.65,0,*79
1503029099.45,23197,19.75,74636.8,7.31,-6.63,-7.73,0,*76
1503029100.65,23198,19.75,74642.5,7.29,-6.73,-7.83,0,*7E
1503029101.84,23199,19.75,74640.8,7.29,-6.81,-7.87,0,*76
1503029103.04,23200,19.75,74642.3,7.29,-6.77,-7.87,0,*7C
1503029104.26,23201,19.75,74640.5,7.31,-6.73,-7.87,0,*70
1503029105.47,23202,19.75,74642.0,7.29,-6.63,-7.83,0,*7F
1503029106.71,23203,19.75,74642.3,7.31,-6.81,-7.99,0,*70
1503029107.95,23204,19.75,74640.5,7.31,-6.81,-7.95,0,*7B
1503029109.18,23205,19.75,74642.3,7.31,-6.77,-7.95,0,*73
1503029110.4,23206,19.75,74642.0,7.31,-6.73,-7.83,0,*73
1503029111.64,23207,19.75,74642.0,7.31,-6.51,-7.69,0,*76
1503029112.87,23208,19.75,74640.0,7.31,-6.63,-7.83,0,*7C
1503029114.12,23209,19.75,74640.5,7.31,-6.59,-7.73,0,*7B
1503029115.36,23210,19.75,74640.3,7.31,-6.59,-7.73,0,*73
1503029116.59,23211,19.75,74640.8,7.31,-6.63,-7.83,0,*74
1503029117.83,23212,19.75,74646.0,7.31,-6.59,-7.73,0,*71
1503029119.05,23213,19.75,74642.0,7.33,-6.55,-7.69,0,*75
1503029120.27,23214,19.75,74638.5,7.33,-6.55,-7.77,0,*7D
1503029121.49,23215,19.75,74640.8,7.33,-6.43,-7.77,0,*7B
1503029122.73,23216,19.75,74642.5,7.35,-6.51,-7.73,0,*79
1503029123.99,23217,19.75,74640.5,7.35,-6.63,-7.77,0,*7D
1503029125.25,23218,19.75,74642.5,7.35,-6.63,-7.91,0,*7A
1503029126.5,23219,19.75,74640.3,7.35,-6.55,-7.77,0,*76
1503029127.71,23220,19.75,74640.3,7.33,-6.69,-7.95,0,*79
1503029128.92,23221,19.75,74640.5,7.33,-6.69,-7.91,0,*7C
1503029130.15,23222,19.75,74638.3,7.35,-6.73,-7.91,0,*72
1503029131.39,23223,19.75,74638.3,7.35,-6.69,-7.91,0,*78
1503029132.65,23224,19.75,74636.5,7.35,-6.63,-7.91,0,*75
1503029133.91,23225,19.75,74640.3,7.35,-6.63,-7.99,0,*7C
1503029135.14,23226,19.75,74638.0,7.35,-6.69,-7.99,0,*75
1503029136.4,23227,19.75,74638.3,7.35,-6.63,-7.91,0,*76
1503029137.66,23228,19.75,74638.3,7.35,-6.63,-7.91,0,*79
1503029138.92,23229,19.75,74638.0,7.35,-6.63,-7.99,0,*70
1503029140.18,23230,19.75,74638.8,7.35,-6.63,-7.99,0,*78
1503029141.41,23231,19.75,74638.3,7.35,-6.69,-8.03,0,*7F
1503029142.65,23232,19.75,74632.8,7.35,-6.73,-8.11,0,*74
1503029143.88,23233,19.75,74638.8,7.35,-6.69,-8.03,0,*7D
1503029145.09,23234,19.75,74640.0,7.37,-6.73,-8.03,0,*73
1503029146.28,23235,19.75,74638.0,7.37,-6.85,-8.17,0,*7E
1503029147.47,23236,19.75,74638.8,7.37,-6.81,-8.25,0,*78
1503029148.66,23237,19.75,74638.0,7.37,-6.85,-8.29,0,*71
1503029149.85,23238,19.75,74640.3,7.37,-6.81,-8.17,0,*77
1503029151.04,23239,19.75,74642.8,7.37,-6.85,-8.17,0,*72
1503029152.26,23240,19.75,74644.0,7.37,-6.73,-8.11,0,*73
1503029153.45,23241,19.75,74644.3,7.37,-6.81,-8.25,0,*78
1503029154.64,23242,19.75,74646.8,7.37,-6.81,-8.29,0,*77
1503029155.86,23243,19.75,74646.5,7.37,-6.69,-8.11,0,*7B
1503029157.09,23244,19.75,74642.5,7.37,-6.63,-8.03,0,*75
1503029158.3,23245,19.75,74634.8,7.37,-6.55,-8.03,0,*71
1503029159.56,23246,19.75,74640.3,7.35,-6.63,-8.11,0,*76
1503029160.75,23247,19.75,74640.3,7.37,-6.69,-8.17,0,*79
1503029161.96,23248,19.75,74644.8,7.37,-6.55,-8.11,0,*7F
1503029163.2,23249,19.75,74642.5,7.37,-6.63,-8.11,0,*7B
1503029164.4,23250,19.75,74640.8,7.37,-6.85,-8.37,0,*7F
1503029165.66,23251,19.75,74640.5,7.39,-6.63,-8.11,0,*7C
1503029166.9,23252,19.75,74642.5,7.39,-6.59,-8.11,0,*76
1503029168.09,23253,19.75,74642.3,7.37,-6.73,-8.25,0,*76
1503029169.27,23254,19.75,74640.8,7.37,-6.69,-8.17,0,*7B
1503029170.51,23255,19.75,74640.0,7.39,-6.59,-8.11,0,*71
1503029171.72,23256,19.75,74642.8,7.37,-6.63,-8.17,0,*73
1503029172.97,23257,19.75,74642.8,7.39,-6.51,-8.11,0,*7B
1503029174.16,23258,19.75,74644.5,7.37,-6.55,-8.17,0,*78
1503029175.38,23259,19.81,74646.8,7.39,-6.59,-8.21,0,*7E
1503029176.61,23260,19.75,74642.5,7.39,-6.63,-8.29,0,*75
1503029177.83,23261,19.75,74642.3,7.39,-6.51,-8.21,0,*7D
1503029179.04,23262,19.75,74640.0,7.37,-6.63,-8.29,0,*79
1503029180.22,23263,19.75,74640.3,7.37,-6.69,-8.29,0,*72
1503029181.43,23264,19.75,74644.3,7.39,-6.69,-8.25,0,*77
1503029182.64,23265,19.75,74642.8,7.39,-6.69,-8.41,0,*74
1503029183.84,23266,19.75,74642.8,7.39,-6.69,-8.33,0,*72
1503029185.05,23267,19.75,74640.0,7.39,-6.69,-8.41,0,*76
1503029186.29,23268,19.75,74642.0,7.39,-6.63,-8.45,0,*77
1503029187.52,23269,19.75,74640.0,7.39,-6.69,-8.51,0,*79
1503029188.76,23270,19.75,74640.5,7.39,-6.77,-8.51,0,*7E
1503029189.98,23271,19.75,74642.3,7.39,-6.77,-8.41,0,*7E
1503029191.21,23272,19.75,74640.5,7.39,-6.63,-8.55,0,*7D
1503029192.41,23273,19.75,74640.8,7.39,-6.69,-8.55,0,*76
1503029193.6,23274,19.75,74642.3,7.37,-6.81,-8.55,0,*79
1503029194.78,23275,19.81,74644.0,7.37,-6.81,-8.67,0,*79
1503029195.99,23276,19.81,74646.3,7.39,-6.77,-8.55,0,*7C
1503029197.18,23277,19.75,74642.3,7.37,-6.85,-8.67,0,*7F
1503029198.39,23278,19.81,74646.3,7.39,-6.77,-8.63,0,*77
1503029199.6,23279,19.75,74642.0,7.39,-6.69,-8.63,0,*79
1503029200.8,23280,19.75,74638.8,7.39,-6.69,-8.63,0,*7F
1503029201.99,23281,19.75,74642.8,7.37,-6.81,-8.59,0,*7F
1503029203.18,23282,19.75,74640.5,7.37,-6.81,-8.59,0,*7C
1503029204.39,23283,19.75,74642.3,7.39,-6.77,-8.63,0,*73
1503029205.58,23284,19.75,74640.3,7.37,-6.81,-8.67,0,*77
1503029206.79,23285,19.75,74640.5,7.39,-6.77,-8.67,0,*71
1503029208.0,23286,19.75,74638.5,7.39,-6.77,-8.75,0,*71
1503029209.2,23287,19.75,74642.3,7.39,-6.69,-8.67,0,*7C
1503029210.39,23288,19.75,74640.0,7.37,-6.81,-8.71,0,*7C
1503029211.6,23289,19.75,74640.0,7.39,-6.77,-8.67,0,*7D
1503029212.81,23290,19.75,74642.0,7.39,-6.69,-8.67,0,*7A
1503029214.04,23291,19.75,74642.5,7.39,-6.77,-8.81,0,*7C
1503029215.25,23292,19.75,74642.3,7.39,-6.77,-8.67,0,*77
1503029216.49,23293,19.81,74644.3,7.39,-6.77,-8.81,0,*7E
1503029217.69,23294,19.75,74644.5,7.37,-6.81,-8.85,0,*7A
1503029218.92,23295,19.75,74644.3,7.39,-6.77,-8.81,0,*78
1503029220.16,23296,19.75,74642.3,7.39,-6.77,-8.81,0,*7B
1503029221.38,23297,19.75,74640.0,7.39,-6.77,-8.89,0,*72
1503029222.6,23298,19.75,74642.5,7.39,-6.77,-8.89,0,*7D
1503029223.83,23299,19.81,74646.5,7.39,-6.69,-8.81,0,*7B
1503029225.08,23300,19.75,74638.8,7.39,-6.63,-8.81,0,*70
1503029226.3,23301,19.75,74640.8,7.39,-6.69,-8.89,0,*73
1503029227.49,23302,19.75,74642.0,7.37,-6.81,-8.93,0,*73
1503029228.7,23303,19.75,74642.0,7.39,-6.69,-8.89,0,*71
1503029229.89,23304,19.75,74640.3,7.37,-6.69,-8.85,0,*74
1503029231.09,23305,19.75,74638.0,7.37,-6.73,-8.93,0,*79
1503029232.32,23306,19.75,74640.5,7.39,-6.63,-8.89,0,*7E
1503029233.51,23307,19.81,74642.3,7.37,-6.73,-8.93,0,*7B
1503029234.73,23308,19.75,74638.8,7.39,-6.69,-9.01,0,*7B
1503029235.92,23309,19.75,74640.5,7.37,-6.73,-9.05,0,*7B
1503029237.14,23310,19.75,74640.5,7.39,-6.77,-8.93,0,*77
1503029238.36,23311,19.75,74642.0,7.39,-6.77,-9.01,0,*7C
1503029239.55,23312,19.75,74642.8,7.37,-6.73,-9.05,0,*71
1503029240.76,23313,19.75,74640.5,7.37,-6.85,-9.11,0,*7C
1503029241.95,23314,19.75,74640.5,7.37,-6.85,-9.19,0,*73
1503029243.14,23315,19.75,74642.8,7.37,-6.85,-9.19,0,*72
1503029244.38,23316,19.75,74644.3,7.39,-6.93,-9.19,0,*78
1503029245.6,23317,19.81,74646.0,7.39,-6.89,-9.23,0,*7B
1503029246.81,23318,19.81,74646.8,7.37,-6.97,-9.27,0,*71
1503029248.03,23319,19.75,74640.8,7.37,-6.93,-9.27,0,*74
1503029249.23,23320,19.81,74644.8,7.37,-6.85,-9.27,0,*79
1503029250.44,23321,19.75,74644.0,7.37,-6.97,-9.27,0,*7B
1503029251.66,23322,19.75,74644.0,7.37,-6.93,-9.27,0,*7C
1503029252.88,23323,19.81,74646.3,7.37,-6.93,-9.27,0,*7D
1503029254.08,23324,19.81,74644.0,7.37,-6.85,-9.27,0,*7D
1503029255.29,23325,19.75,74642.5,7.35,-6.85,-9.27,0,*7E
1503029256.51,23326,19.81,74644.5,7.35,-6.81,-9.27,0,*79
1503029257.78,23327,19.75,74642.3,7.35,-6.93,-9.37,0,*7A
1503029259.05,23328,19.81,74646.5,7.35,-6.93,-9.37,0,*75
1503029260.32,23329,19.75,74644.3,7.35,-6.97,-9.37,0,*70
1503029261.59,23330,19.75,74642.5,7.35,-6.97,-9.53,0,*7A
1503029262.86,23331,19.81,74644.3,7.35,-6.93,-9.49,0,*74
1503029264.09,23332,19.81,74646.3,7.35,-6.85,-9.41,0,*78
1503029265.36,23333,19.75,74644.0,7.35,-6.93,-9.41,0,*7E
1503029266.63,23334,19.81,74650.5,7.35,-6.93,-9.49,0,*71
1503029267.88,23335,19.75,74640.0,7.33,-6.97,-9.53,0,*79
1503029269.12,23336,19.75,74642.8,7.33,-6.93,-9.57,0,*7A
1503029270.33,23337,19.75,74640.0,7.33,-6.85,-9.45,0,*7F
1503029271.55,23338,19.81,74646.8,7.33,-6.89,-9.41,0,*78
1503029272.79,23339,19.75,74642.0,7.35,-6.81,-9.49,0,*7F
1503029274.04,23340,19.81,74646.8,7.35,-6.81,-9.49,0,*71
1503029275.25,23341,19.75,74644.5,7.33,-6.85,-9.49,0,*72
1503029276.5,23342,19.81,74646.8,7.35,-6.85,-9.53,0,*7C
1503029277.71,23343,19.75,74644.8,7.33,-6.89,-9.57,0,*73
1503029278.95,23344,19.75,74646.0,7.35,-6.81,-9.53,0,*7E
1503029280.17,23345,19.75,74640.8,7.33,-6.73,-9.53,0,*74
1503029281.41,23346,19.81,74642.3,7.35,-6.69,-9.49,0,*71
1503029282.63,23347,19.81,74646.8,7.33,-6.77,-9.53,0,*72
1503029283.87,23348,19.81,74646.0,7.35,-6.69,-9.49,0,*7F
1503029285.11,23349,19.75,74640.3,7.35,-6.73,-9.53,0,*7E
1503029286.35,23350,19.75,74640.3,7.35,-6.73,-9.61,0,*77
1503029287.56,23351,19.81,74644.5,7.35,-6.85,-9.67,0,*79
1503029288.76,23352,19.75,74640.5,7.33,-6.85,-9.71,0,*7B
1503029289.98,23353,19.81,74642.5,7.35,-6.81,-9.67,0,*7F
1503029291.21,23354,19.81,74640.3,7.35,-6.69,-9.61,0,*78
1503029292.45,23355,19.75,74642.5,7.35,-6.73,-9.53,0,*73
1503029293.65,23356,19.81,74642.8,7.33,-6.77,-9.67,0,*75
1503029294.84,23357,19.81,74644.8,7.33,-6.73,-9.67,0,*70
1503029296.08,23358,19.81,74642.0,7.35,-6.73,-9.61,0,*7F
1503029297.29,23359,19.75,74638.0,7.35,-6.69,-9.67,0,*73
1503029298.53,23360,19.75,74638.8,7.35,-6.69,-9.61,0,*7F
1503029299.76,23361,19.81,74642.5,7.35,-6.69,-9.61,0,*7E
1503029301.0,23362,19.81,74640.3,7.37,-6.63,-9.49,0,*7F
1503029302.24,23363,19.81,74642.0,7.35,-6.63,-9.67,0,*70
1503029303.48,23364,19.81,74640.8,7.35,-6.51,-9.53,0,*71
1503029304.73,23365,19.75,74636.8,7.35,-6.51,-9.53,0,*70
1503029305.98,23366,19.81,74638.8,7.35,-6.51,-9.49,0,*78
1503029307.22,23367,19.81,74640.0,7.35,-6.55,-9.53,0,*76
1503029308.46,23368,19.81,74636.8,7.35,-6.43,-9.53,0,*7E
1503029309.71,23369,19.75,74634.8,7.35,-6.51,-9.53,0,*7C
1503029310.93,23370,19.81,74636.8,7.37,-6.55,-9.53,0,*72
1503029312.15,23371,19.75,74636.8,7.37,-6.55,-9.53,0,*73
1503029313.37,23372,19.75,74636.0,7.37,-6.43,-9.49,0,*7C
1503029314.59,23373,19.75,74638.0,7.37,-6.39,-9.49,0,*70
1503029315.8,23374,19.81,74640.3,7.37,-6.31,-9.41,0,*77